KI5NYZ Weather Reports


Display with metric or nautical units.
time (UTC)temp
F
wind
direction
speed
MPH
gust
MPH
rain 1hr
in
rain 24hr
in
rain mn
in
humidity
%
barometer
mb
20260902224024 101 159 2.0 6.0 0.01 0.31 0.28 22 1013.8
20260902223019 100 179 1.0 6.0 0.01 0.32 0.28 23 1013.8
20260902222023 100 195 3.0 8.0 0.01 0.33 0.28 23 1013.9
20260902221019 99 185 2.0 8.0 0.01 0.33 0.28 23 1014.0
20260902220021 100 128 2.0 6.0 0.01 0.35 0.28 23 1013.9
20260902215025 100 154 2.0 7.0 0.01 0.35 0.28 23 1014.1
20260902214020 100 175 3.0 8.0 0.01 0.35 0.28 23 1014.2
20260902213026 100 162 1.0 7.0 0.01 0.36 0.28 23 1014.3
20260902212021 100 199 2.0 7.0 0.01 0.36 0.28 24 1014.4
20260902211024 100 174 2.0 10.0 0.01 0.37 0.27 23 1014.5
20260902210022 99 189 4.0 10.0 0.01 0.38 0.27 24 1014.7
20260902205041 99 195 2.0 9.0 0.01 0.38 0.27 24 1014.8
20260902204025 99 115 2.0 6.0 0.01 0.40 0.26 24 1014.9
20260902203028 99 149 1.0 5.0 0.02 0.40 0.26 24 1015.1
20260902202022 98 163 2.0 6.0 0.02 0.41 0.26 25 1015.2
20260902201043 98 166 1.0 4.0 0.03 0.41 0.26 25 1015.4
20260902200041 98 184 4.0 9.0 0.03 0.42 0.26 25 1015.5
20260902195020 99 152 2.0 5.0 0.02 0.42 0.26 25 1015.7
20260902194022 99 197 3.0 9.0 0.03 0.42 0.26 24 1015.9
20260902193019 98 226 3.0 12.0 0.03 0.42 0.25 26 1015.9
20260902192040 98 210 3.0 7.0 0.02 0.41 0.24 26 1016.2
20260902191020 98 187 4.0 8.0 0.02 0.43 0.24 26 1016.3
20260902190039 98 191 4.0 10.0 0.03 0.43 0.23 26 1016.4
20260902185022 97 212 4.0 10.0 0.03 0.44 0.23 28 1016.6
20260902184022 97 214 4.0 8.0 0.03 0.43 0.23 27 1016.7
20260902183021 96 201 3.0 6.0 0.04 0.44 0.22 27 1016.9
20260902182019 96 232 4.0 8.0 0.04 0.44 0.22 27 1017.1
20260902181021 96 181 4.0 10.0 0.05 0.44 0.22 28 1017.3
20260902180022 95 198 4.0 8.0 0.05 0.44 0.21 30 1017.5
20260902175020 95 189 4.0 8.0 0.05 0.44 0.20 30 1017.6
20260902174023 94 193 4.0 8.0 0.05 0.44 0.19 31 1017.8
20260902173103 94 192 5.0 10.0 0.05 0.43 0.19 32 1017.9
20260902172028 93 186 5.0 9.0 0.05 0.44 0.18 33 1018.0
20260902171042 93 190 4.0 9.0 0.04 0.43 0.17 33 1018.1
20260902170021 92 190 5.0 9.0 0.04 0.42 0.16 35 1018.1
20260902165020 92 185 4.0 9.0 0.04 0.42 0.15 35 1018.2
20260902164019 91 202 4.0 8.0 0.04 0.42 0.14 36 1018.2
20260902163021 90 196 4.0 10.0 0.04 0.42 0.14 37 1018.2
20260902162021 90 196 4.0 10.0 0.05 0.42 0.13 37 1018.2
20260902161019 89 196 5.0 9.0 0.06 0.42 0.12 38 1018.2
20260902160019 88 201 4.0 8.0 0.07 0.43 0.12 39 1018.2
20260902155019 87 206 4.0 10.0 0.07 0.43 0.11 40 1018.1
20260902154022 86 224 4.0 11.0 0.09 0.43 0.10 41 1018.2
20260902153020 85 194 5.0 11.0 0.09 0.43 0.10 42 1018.2
20260902152020 85 199 5.0 10.0 0.08 0.42 0.08 43 1018.2
20260902151019 84 195 6.0 11.0 0.07 0.41 0.07 44 1018.2
20260902150043 83 206 4.0 9.0 0.05 0.39 0.05 45 1018.2
20260902145020 83 200 4.0 11.0 0.03 0.39 0.03 46 1018.2
20260902144020 82 218 4.0 9.0 0.02 0.38 0.02 47 1018.1
20260902143022 81 206 4.0 9.0 0.01 0.38 0.01 48 1018.1
20260902142021 79 203 3.0 6.0 0.00 0.37 0.00 50 1018.1
20260902141022 78 188 4.0 8.0 0.00 0.37 0.00 52 1018.0
20260902140023 76 186 2.0 6.0 0.00 0.37 0.00 54 1018.0
20260902135021 75 200 1.0 4.0 0.00 0.37 0.00 56 1018.0
20260902134025 73 243 1.0 4.0 0.00 0.37 0.00 59 1018.0
20260902133026 73 243 1.0 4.0 0.00 0.37 0.00 59 1017.9
20260902132022 73 250 3.0 5.0 0.00 0.37 0.00 60 1017.8
20260902131042 73 224 2.0 7.0 0.00 0.37 0.00 59 1017.6
20260902130021 72 202 2.0 4.0 0.00 0.37 0.00 58 1017.4
20260902125020 71 199 1.0 4.0 0.00 0.37 0.00 60 1017.3
20260902124022 71 189 2.0 4.0 0.00 0.37 0.00 60 1017.2
20260902123022 70 189 2.0 4.0 0.00 0.37 0.00 61 1017.2
20260902122021 71 190 1.0 3.0 0.00 0.37 0.00 61 1017.2
20260902121022 71 195 2.0 4.0 0.00 0.37 0.00 60 1017.2
20260902120021 70 201 2.0 3.0 0.00 0.37 0.00 62 1017.2
20260902115023 71 202 0.0 2.0 0.00 0.37 0.00 60 1017.2
20260902114019 72 208 1.0 3.0 0.00 0.37 0.00 58 1017.2
20260902113020 72 207 2.0 8.0 0.00 0.37 0.00 58 1017.2
20260902112023 72 197 2.0 4.0 0.00 0.37 0.00 58 1017.2
20260902111040 72 182 2.0 4.0 0.00 0.37 0.00 58 1017.1
20260902110023 72 202 1.0 6.0 0.00 0.37 0.00 57 1017.2
20260902105021 72 195 3.0 4.0 0.00 0.37 0.00 58 1017.2
20260902104021 72 195 1.0 4.0 0.00 0.37 0.00 57 1017.2
20260902103025 73 196 2.0 5.0 0.00 0.37 0.00 56 1017.3
20260902102026 73 197 2.0 4.0 0.00 0.37 0.00 55 1017.2
20260902101025 74 191 2.0 5.0 0.00 0.37 0.00 54 1017.2
20260902100022 74 190 2.0 4.0 0.00 0.37 0.00 53 1017.3
20260902095024 74 185 2.0 5.0 0.00 0.37 0.00 53 1017.3
20260902094018 74 176 3.0 6.0 0.00 0.37 0.00 53 1017.1
20260902093020 75 176 2.0 4.0 0.00 0.37 0.00 53 1017.2
20260902092023 75 185 2.0 5.0 0.00 0.37 0.00 52 1017.3
20260902091043 75 176 2.0 4.0 0.00 0.37 0.00 52 1017.3
20260902090027 75 181 2.0 4.0 0.00 0.37 0.00 51 1017.4
20260902085040 76 182 2.0 5.0 0.00 0.37 0.00 50 1017.3
20260902084022 76 180 2.0 4.0 0.00 0.37 0.00 50 1017.3
20260902083031 76 179 1.0 4.0 0.00 0.37 0.00 50 1017.2
20260902082022 76 167 2.0 4.0 0.00 0.37 0.00 50 1017.3
20260902081022 76 173 2.0 5.0 0.00 0.37 0.00 49 1017.3
20260902080041 76 164 2.0 5.0 0.00 0.37 0.00 50 1017.3
20260902075021 76 170 1.0 4.0 0.00 0.37 0.00 50 1017.4
20260902074021 77 172 1.0 5.0 0.00 0.37 0.00 49 1017.3
20260902073020 76 167 2.0 4.0 0.00 0.37 0.00 50 1017.3
20260902072024 76 169 1.0 3.0 0.00 0.37 0.00 50 1017.2
20260902071021 76 168 0.0 3.0 0.00 0.37 0.00 50 1017.2
20260902070025 76 172 1.0 4.0 0.00 0.37 0.00 50 1017.2
20260902065042 76 165 1.0 3.0 0.00 0.37 0.00 49 1017.2
20260902064043 77 174 1.0 3.0 0.00 0.37 0.00 49 1017.2
20260902063039 77 170 1.0 3.0 0.00 0.37 0.00 48 1017.3
20260902062019 77 181 1.0 3.0 0.00 0.37 0.00 48 1017.3
20260902061019 78 171 0.0 3.0 0.00 0.37 0.00 47 1017.3
20260902060021 78 169 1.0 4.0 0.00 0.37 0.00 46 1017.2
20260902055019 78 184 0.0 3.0 0.00 0.37 0.00 46 1017.1
20260902054045 79 153 0.0 3.0 0.00 0.37 0.00 45 1017.0
20260902053020 79 175 0.0 3.0 0.00 0.37 0.00 44 1017.0
20260902052023 79 147 1.0 4.0 0.00 0.37 0.00 44 1017.0
20260902051019 79 130 0.0 2.0 0.00 0.37 0.00 45 1017.0
20260902050021 79 113 0.0 2.0 0.00 0.37 0.00 44 1017.0
20260902045021 79 149 0.0 3.0 0.00 0.37 0.37 44 1017.0
20260902044020 80 106 0.0 2.0 0.00 0.37 0.37 43 1017.1
20260902043023 80 177 0.0 3.0 0.00 0.37 0.37 42 1017.2
20260902042041 80 122 0.0 2.0 0.00 0.37 0.37 42 1017.1
20260902041020 80 145 0.0 2.0 0.00 0.37 0.37 42 1017.1
20260902040024 80 136 1.0 3.0 0.00 0.37 0.37 42 1017.0
20260902035025 80 134 0.0 3.0 0.00 0.37 0.37 42 1016.9
20260902034023 80 170 0.0 3.0 0.00 0.37 0.37 42 1016.9
20260902033024 80 210 0.0 2.0 0.00 0.37 0.37 42 1016.8
20260902032026 81 184 0.0 2.0 0.00 0.37 0.37 41 1016.6
20260902031046 80 15 0.0 1.0 0.00 0.37 0.37 41 1016.5
20260902030019 81 0 0.0 0.0 0.00 0.37 0.37 41 1016.4
20260902025023 81 0 0.0 0.0 0.00 0.37 0.37 41 1016.3
20260902024020 82 204 0.0 1.0 0.00 0.37 0.37 40 1016.1
20260902023020 82 187 0.0 2.0 0.00 0.37 0.37 40 1015.8
20260902022040 83 0 0.0 0.0 0.00 0.37 0.37 40 1015.7
20260902021020 84 195 0.0 3.0 0.00 0.37 0.37 39 1015.6
20260902020020 85 190 0.0 2.0 0.00 0.37 0.37 37 1015.5
20260902015020 86 192 0.0 3.0 0.00 0.37 0.37 36 1015.5
20260902014043 87 191 0.0 3.0 0.00 0.37 0.37 35 1015.4
20260902013024 87 178 1.0 4.0 0.00 0.37 0.37 35 1015.4
20260902012023 89 178 1.0 3.0 0.00 0.37 0.37 34 1015.2
20260902011021 90 177 1.0 6.0 0.00 0.37 0.37 33 1015.2
20260902010025 91 180 1.0 4.0 0.01 0.37 0.37 32 1015.1
20260902005022 92 177 1.0 4.0 0.01 0.37 0.37 30 1015.1
20260902004025 93 181 1.0 5.0 0.01 0.37 0.37 30 1015.0
20260902003024 94 175 1.0 6.0 0.01 0.37 0.37 29 1015.0
20260902002019 94 167 2.0 7.0 0.01 0.37 0.37 28 1014.9
20260902001022 95 180 4.0 7.0 0.01 0.38 0.37 28 1014.9
20260902000020 96 173 2.0 8.0 0.02 0.38 0.36 27 1014.9
20260901234018 96 166 1.0 7.0 0.02 0.39 0.36 26 1014.9
20260901233031 96 125 1.0 7.0 0.02 0.40 0.36 26 1014.8
20260901232100 96 182 3.0 9.0 0.03 0.41 0.36 27 1014.8
20260901231020 96 172 3.0 9.0 0.04 0.42 0.35 27 1014.9
20260901230022 96 176 4.0 9.0 0.04 0.42 0.35 27 1014.9
20260901225020 96 182 4.0 8.0 0.04 0.42 0.34 27 1014.9